Location: Krakow
(50.0830°N, 19.9170°E)
Time: 20:41:27
(UTC+02:00)

Explorer 11/Cluster Stage 4 - All Passes

Search period start: 23 July 2024 00:00
Search period end: 02 August 2024 00:00
Orbit: 465 x 1214 km, 28.8° (Epoch: 22 July)

Date Brightness Start Highest point End Pass type
(mag) Time Alt. Az. Time Alt. Az. Time Alt. Az.
28 Jul - 06:20:13 10° S 06:20:52 10° S 06:21:30 10° S daylight
29 Jul - 06:00:36 10° SSW 06:02:29 11° S 06:04:20 10° SSE daylight
30 Jul - 05:41:31 10° SSW 05:44:04 12° S 05:46:32 10° SSE daylight
31 Jul - 05:22:35 10° SSW 05:25:36 13° S 05:28:32 10° SSE daylight
01 Aug - 03:19:18 10° S 03:20:05 10° SSE 03:20:52 10° SSE visible
01 Aug - 05:03:44 10° SSW 05:07:06 13° S 05:10:22 10° SSE daylight
